Anoka County, MN

3:17 AM CDT on June 25, 2017 (GMT -0500)
Anoka County / Blaine Airport

Weather History for KANE - February, 2013

Change the Weather History Date:

Saturday, February 23, 2013

  Actual Average Record
Temperature  
Mean Temperature 25 °F -  
Max Temperature 33 °F 29 °F 55 °F (2008)
Min Temperature 17 °F 15 °F -11 °F (2015)
Degree Days  
Heating Degree Days 40    
Moisture  
Dew Point 22 °F    
Average Humidity 88    
Maximum Humidity 100    
Minimum Humidity 70    
Precipitation  
Precipitation 0.00 in - - ()
Sea Level Pressure  
Sea Level Pressure 29.86 in    
Wind  
Wind Speed 4 mph (WSW)    
Max Wind Speed 6 mph    
Max Gust Speed -    
Visibility 9 miles    
Events Snow    
Averages and records for this station are not official NWS values.
T = Trace of Precipitation, MM = Missing Value Source: NWS Daily Summary

Daily Weather History Graph

Daily Weather History Graph

Search for Another Location

Airport or City:

Trip Planner

Search our weather history database for the weather conditions in past years. The results will help you decide how hot, cold, wet, or windy it might be!

Date:

Astronomy

Feb. 23, 2013 Rise Set
Actual Time 7:00 AM CST 5:52 PM CST
Civil Twilight 6:30 AM CST 6:22 PM CST
Nautical Twilight 5:56 AM CST 6:56 PM CST
Astronomical Twilight 5:22 AM CST 7:30 PM CST
Moon 4:00 PM CST (2/23) 5:27 AM CST (2/23)
Length of Visible Light 11h 51m
Length of Day
10h 51m
Waxing Gibbous, 95% of the Moon is Illuminated
Feb 23
Waxing Gibbous
Feb 25
Full
Mar 4
Last Quarter
Mar 11
New
Mar 19
First Quarter

Hourly Weather History & Observations

Time (CST) Temp. Windchill Dew Point Humidity Pressure Visibility Wind Dir Wind Speed Gust Speed Precip Events Conditions
12:14 AM 21.2 °F 14.9 °F 21.2 °F 100% 29.84 in 10.0 mi SW 4.6 mph - N/A   Mostly Cloudy
12:34 AM 21.2 °F 14.9 °F 21.2 °F 100% 29.84 in 10.0 mi WSW 4.6 mph - N/A Snow Light Snow
12:54 AM 21.2 °F 16.4 °F 21.2 °F 100% 29.84 in 10.0 mi SW 3.5 mph - N/A   Mostly Cloudy
1:14 AM 19.4 °F - 17.6 °F 93% 29.84 in 7.0 mi Calm Calm - N/A   Overcast
1:34 AM 17.6 °F - 17.6 °F 100% 29.84 in 1.2 mi Calm Calm - N/A   Overcast
1:54 AM 17.6 °F - 17.6 °F 100% 29.83 in 4.0 mi Calm Calm - N/A   Overcast
2:14 AM 21.2 °F 16.4 °F 21.2 °F 100% 29.83 in 10.0 mi WSW 3.5 mph - N/A   Overcast
2:34 AM 21.2 °F 16.4 °F 21.2 °F 100% 29.83 in 10.0 mi WSW 3.5 mph - N/A   Overcast
2:54 AM 21.2 °F 16.4 °F 21.2 °F 100% 29.82 in 10.0 mi SSW 3.5 mph - N/A   Overcast
3:14 AM 21.2 °F 14.9 °F 21.2 °F 100% 29.82 in 10.0 mi SW 4.6 mph - N/A   Overcast
3:34 AM 21.2 °F 16.4 °F 21.2 °F 100% 29.82 in 10.0 mi SW 3.5 mph - N/A   Overcast
3:54 AM 21.2 °F 14.9 °F 21.2 °F 100% 29.82 in 10.0 mi SW 4.6 mph - N/A   Overcast
4:14 AM 21.2 °F 16.4 °F 21.2 °F 100% 29.82 in 10.0 mi SW 3.5 mph - N/A   Overcast
4:34 AM 21.2 °F 14.9 °F 21.2 °F 100% 29.82 in 10.0 mi WSW 4.6 mph - N/A   Overcast
4:54 AM 23.0 °F 17.0 °F 21.2 °F 93% 29.82 in 10.0 mi WSW 4.6 mph - N/A   Overcast
5:14 AM 23.0 °F 17.0 °F 21.2 °F 93% 29.82 in 10.0 mi WSW 4.6 mph - N/A   Overcast
5:34 AM 23.0 °F 15.8 °F 21.2 °F 93% 29.82 in 10.0 mi WSW 5.8 mph - N/A   Overcast
5:54 AM 23.0 °F 17.0 °F 21.2 °F 93% 29.83 in 10.0 mi WSW 4.6 mph - N/A   Overcast
6:14 AM 23.0 °F 15.8 °F 21.2 °F 93% 29.83 in 7.0 mi WSW 5.8 mph - N/A Snow Light Snow
6:34 AM 23.0 °F 17.0 °F 21.2 °F 93% 29.84 in 7.0 mi WSW 4.6 mph - N/A Snow Light Snow
6:50 AM 23.0 °F 15.8 °F 21.2 °F 93% 29.84 in 7.0 mi West 5.8 mph - N/A Snow Light Snow
6:53 AM 23.0 °F 15.8 °F 21.2 °F 93% 29.84 in 7.0 mi West 5.8 mph - N/A Snow Light Snow
7:45 AM 23.0 °F 15.8 °F 21.2 °F 93% 29.83 in 10.0 mi WSW 5.8 mph - N/A   Overcast
8:45 AM 24.8 °F 20.5 °F 21.2 °F 86% 29.84 in 7.0 mi WSW 3.5 mph - N/A   Overcast
9:45 AM 26.6 °F 20.0 °F 23.0 °F 86% 29.84 in 7.0 mi West 5.8 mph - N/A   Overcast
10:50 AM 28.4 °F 22.2 °F 24.8 °F 86% 29.85 in 10.0 mi WNW 5.8 mph - N/A   Scattered Clouds
11:45 AM 30.2 °F 25.4 °F 24.8 °F 80% 29.85 in 10.0 mi West 4.6 mph - N/A   Mostly Cloudy
12:45 PM 30.2 °F - 24.8 °F 80% 29.84 in 10.0 mi Calm Calm - N/A   Mostly Cloudy
1:45 PM 30.2 °F 24.3 °F 24.8 °F 80% 29.84 in 1.0 mi NNW 5.8 mph - N/A   Mostly Cloudy
2:45 PM 33.8 °F - 24.8 °F 70% 29.83 in 10.0 mi Calm Calm - N/A   Overcast
3:45 PM 33.8 °F 28.6 °F 24.8 °F 70% 29.84 in 10.0 mi WSW 5.8 mph - N/A   Overcast
4:50 PM 33.8 °F 29.6 °F 24.8 °F 70% 29.84 in 10.0 mi WSW 4.6 mph - N/A   Overcast
5:55 PM 33.8 °F 28.6 °F 24.8 °F 70% 29.85 in 10.0 mi WSW 5.8 mph - N/A   Overcast
6:50 PM 28.4 °F 22.2 °F 23.0 °F 80% 29.88 in 10.0 mi SSW 5.8 mph - N/A   Overcast
7:55 PM 28.4 °F 22.2 °F 21.2 °F 74% 29.90 in 10.0 mi WSW 5.8 mph - N/A   Overcast
8:50 PM 26.6 °F 22.6 °F 21.2 °F 80% 29.90 in 10.0 mi WSW 3.5 mph - N/A   Overcast
9:14 PM 26.6 °F 21.2 °F 21.2 °F 80% 29.91 in 10.0 mi WSW 4.6 mph - N/A   Overcast
9:34 PM 26.6 °F 22.6 °F 21.2 °F 80% 29.91 in 10.0 mi WSW 3.5 mph - N/A   Overcast
9:54 PM 26.6 °F 21.2 °F 21.2 °F 80% 29.92 in 10.0 mi West 4.6 mph - N/A   Overcast
10:14 PM 26.6 °F - 21.2 °F 80% 29.92 in 10.0 mi Calm Calm - N/A   Overcast
10:34 PM 26.6 °F - 21.2 °F 80% 29.92 in 10.0 mi Calm Calm - N/A   Overcast
10:54 PM 26.6 °F 22.6 °F 21.2 °F 80% 29.92 in 10.0 mi SW 3.5 mph - N/A   Overcast
11:14 PM 24.8 °F 19.1 °F 21.2 °F 86% 29.93 in 10.0 mi SW 4.6 mph - N/A   Overcast
11:34 PM 24.8 °F 20.5 °F 19.4 °F 80% 29.94 in 10.0 mi SW 3.5 mph - N/A   Scattered Clouds
11:54 PM 24.8 °F 20.5 °F 19.4 °F 80% 29.94 in 10.0 mi SW 3.5 mph - N/A   Clear